Location: Starhoo Observatory
(41.8578°N, 70.9669°W)
Time: 17:37:29
(UTC-05:00)

ISS - Visible Passes

Search period start: 16 December 2017 00:00
Search period end: 26 December 2017 00:00
Orbit: 402 x 406 km, 51.6° (Epoch: 17 December)

Date Brightness Start Highest point End Pass type
(mag) Time Alt. Az. Time Alt. Az. Time Alt. Az.
16 Dec -2.7 17:16:56 10° WNW 17:20:06 46° SW 17:23:16 10° SE visible
17 Dec -0.2 18:03:16 10° WSW 18:03:52 10° SW 18:04:27 10° SW visible
18 Dec -0.8 17:09:21 10° W 17:11:49 20° SW 17:14:16 10° S visible
25 Dec -0.7 06:12:00 10° S 06:14:22 19° SE 06:16:44 10° E visible
